North Platte, NE

11:29 PM CST on December 17, 2017 (GMT -0600)
North Platte Regional-Bird

Weather History for KLBF - December, 2014

Change the Weather History Date:

Wednesday, December 10, 2014

  Actual Average Record
Temperature  
Mean Temperature 33 °F 26 °F  
Max Temperature 54 °F 40 °F 70 °F (1890)
Min Temperature 12 °F 12 °F -19 °F (1919)
Degree Days  
Heating Degree Days 32 39  
Month to date heating degree days 322 380  
Since 1 July heating degree days 1842 1931  
Cooling Degree Days 0 0  
Month to date cooling degree days 0 0  
Year to date cooling degree days 744 768  
Moisture  
Dew Point 21 °F    
Average Humidity 67    
Maximum Humidity 96    
Minimum Humidity 38    
Precipitation  
Precipitation 0.00 in 0.01 in 0.67 in (1965)
Month to date precipitation 0.00 0.14  
Year to date precipitation 20.48 19.96  
Snow  
Snow 0.00 in 0.10 in 2.20 in (1909)
Month to date snowfall 0.0 1.4  
Since 1 July snowfall 0.4 7.6  
Snow Depth 0.00 in    
Sea Level Pressure  
Sea Level Pressure 30.18 in    
Wind  
Wind Speed 4 mph (ESE)    
Max Wind Speed 13 mph    
Max Gust Speed 16 mph    
Visibility 7 miles    
Events Fog    
T = Trace of Precipitation, MM = Missing Value Source: NWS Daily Summary

Daily Weather History Graph

Daily Weather History Graph

Search for Another Location

Airport or City:

Trip Planner

Search our weather history database for the weather conditions in past years. The results will help you decide how hot, cold, wet, or windy it might be!

Date:

Astronomy

Dec. 10, 2014 Rise Set
Actual Time 7:57 AM CST 5:13 PM CST
Civil Twilight 7:26 AM CST 5:45 PM CST
Nautical Twilight 6:51 AM CST 6:19 PM CST
Astronomical Twilight 6:18 AM CST 6:53 PM CST
Moon 9:32 PM CST (12/10) 10:47 AM CST (12/10)
Length of Visible Light 10h 18m
Length of Day
9h 16m
Waning Gibbous, 83% of the Moon is Illuminated
Dec 10
Waning Gibbous
Dec 14
Last Quarter
Dec 21
New
Dec 28
First Quarter
Jan 4
Full

Hourly Weather History & Observations

Time (CST) Temp. Windchill Dew Point Humidity Pressure Visibility Wind Dir Wind Speed Gust Speed Precip Events Conditions
12:53 AM 19.0 °F 13.9 °F 16.0 °F 88% 30.23 in 10.0 mi ENE 3.5 mph - N/A   Clear
1:53 AM 19.0 °F 13.9 °F 15.1 °F 85% 30.21 in 10.0 mi SW 3.5 mph - N/A   Clear
2:53 AM 17.1 °F - 12.9 °F 84% 30.21 in 10.0 mi Calm Calm - N/A   Clear
3:53 AM 17.1 °F 11.7 °F 14.0 °F 88% 30.20 in 8.0 mi East 3.5 mph - N/A   Clear
4:53 AM 14.0 °F - 10.9 °F 88% 30.21 in 8.0 mi Calm Calm - N/A   Clear
5:53 AM 14.0 °F - 12.0 °F 92% 30.22 in 8.0 mi Calm Calm - N/A   Clear
6:53 AM 14.0 °F - 10.0 °F 84% 30.24 in 9.0 mi Calm Calm - N/A   Clear
7:53 AM 12.9 °F - 10.0 °F 88% 30.27 in 8.0 mi Calm Calm - N/A   Clear
8:53 AM 19.9 °F 13.4 °F 17.1 °F 89% 30.26 in 8.0 mi WNW 4.6 mph - N/A   Clear
9:53 AM 25.0 °F 18.1 °F 19.9 °F 81% 30.24 in 8.0 mi WNW 5.8 mph - N/A   Clear
10:53 AM 32.0 °F 26.4 °F 23.0 °F 69% 30.23 in 10.0 mi WNW 5.8 mph - N/A   Clear
11:53 AM 39.0 °F 36.8 °F 25.0 °F 57% 30.18 in 10.0 mi West 3.5 mph - N/A   Clear
12:53 PM 46.0 °F - 27.0 °F 47% 30.14 in 10.0 mi Calm Calm - N/A   Clear
1:53 PM 52.0 °F - 28.0 °F 40% 30.12 in 10.0 mi Calm Calm - N/A   Clear
2:53 PM 53.1 °F - 28.0 °F 38% 30.10 in 10.0 mi Calm Calm - N/A   Clear
3:53 PM 50.0 °F - 28.0 °F 43% 30.12 in 10.0 mi ESE 11.5 mph - N/A   Clear
4:53 PM 43.0 °F 37.2 °F 27.0 °F 53% 30.15 in 10.0 mi ESE 10.4 mph - N/A   Clear
5:53 PM 35.1 °F 27.9 °F 26.1 °F 70% 30.17 in 10.0 mi ESE 9.2 mph - N/A   Clear
6:53 PM 30.0 °F 22.4 °F 25.0 °F 82% 30.18 in 8.0 mi ESE 8.1 mph - N/A   Clear
7:53 PM 25.0 °F 17.1 °F 23.0 °F 92% 30.21 in 7.0 mi ESE 6.9 mph - N/A   Clear
8:53 PM 23.0 °F 18.4 °F 21.0 °F 92% 30.20 in 5.0 mi ESE 3.5 mph - N/A   Clear
9:53 PM 25.0 °F - 21.9 °F 88% 30.19 in 5.0 mi Calm Calm - N/A   Clear
10:27 PM 21.9 °F - 19.9 °F 92% 30.11 in 4.0 mi Calm Calm - N/A   Scattered Clouds
10:36 PM 21.9 °F - 19.9 °F 92% 30.11 in 4.0 mi Calm Calm - N/A   Mostly Cloudy
10:53 PM 25.0 °F 20.7 °F 23.0 °F 92% 30.19 in 4.0 mi ENE 3.5 mph - N/A   Overcast
11:01 PM 25.0 °F 20.7 °F 24.1 °F 96% 30.11 in 2.5 mi East 3.5 mph - N/A   Overcast
11:27 PM 26.1 °F - 25.0 °F 96% 30.11 in 1.2 mi Calm Calm - N/A   Overcast
11:38 PM 26.1 °F - 26.1 °F 100% 30.11 in 0.5 mi Calm Calm - N/A Fog Light Freezing Fog
11:48 PM 26.6 °F - 26.6 °F 100% 30.12 in 0.2 mi Calm Calm - N/A Fog Light Freezing Fog
11:53 PM 27.0 °F - 26.1 °F 96% 30.18 in 0.2 mi Calm Calm - N/A Fog Light Freezing Fog